Вернуться в каталог

STARLINK-6220

АктивенСвязьVLEO
NORAD 56482·PAYLOAD·🇺🇸 United States

Запущен May 10, 2023 с Vandenberg Space Force Base

Loading…

Ближайшие Пролёты (ближайшие 24 часа)

TLE

СвежийSource: CelesTrak SupGP

Эпоха: Sep 15, 2026, 03:03 UTC

1 56482C 23064AL  26258.12756944  .00470820  00000+0  37421-1 0  2587
2 56482  70.0003   6.7822 0003129 266.9294 183.5205 15.00130814    13

Отслеживайте STARLINK-6220 в реальном времени с AllMySat

Download on the App Store